Weather History for KLVM - March, 2014

Change the Weather History Date:

Thursday, March 27, 2014

  Actual Average Record
Temperature  
Mean Temperature 33 °F 38 °F  
Max Temperature 37 °F 50 °F 74 °F (2015)
Min Temperature 29 °F 26 °F 2 °F (1965)
Degree Days  
Heating Degree Days 32 27  
Month to date heating degree days 821 805  
Since 1 July heating degree days 6064 6153  
Cooling Degree Days 0 0  
Month to date cooling degree days 0 0  
Year to date cooling degree days 0 0  
Moisture  
Dew Point 30 °F    
Average Humidity 85    
Maximum Humidity 92    
Minimum Humidity 78    
Precipitation  
Precipitation 0.06 in 0.04 in 1.11 in (1981)
Month to date precipitation 1.69 0.69  
Year to date precipitation 2.79 1.68  
Sea Level Pressure  
Sea Level Pressure 29.64 in    
Wind  
Wind Speed 11 mph (East)    
Max Wind Speed 20 mph    
Max Gust Speed 21 mph    
Visibility 5 miles    
Events Fog , Snow    
T = Trace of Precipitation, MM = Missing Value Source: NWS Daily Summary

Daily Weather History Graph

Daily Weather History Graph

Search for Another Location

Airport or City:

Trip Planner

Search our weather history database for the weather conditions in past years. The results will help you decide how hot, cold, wet, or windy it might be!

Date:

Astronomy

Mar. 27, 2014 Rise Set
Actual Time 7:11 AM MDT 7:43 PM MDT
Civil Twilight 6:41 AM MDT 8:13 PM MDT
Nautical Twilight 6:06 AM MDT 8:48 PM MDT
Astronomical Twilight 5:29 AM MDT 9:25 PM MDT
Moon 5:14 AM MDT (3/27) 4:26 PM MDT (3/27)
Length of Visible Light 13h 32m
Length of Day
12h 32m
Waning Crescent, 12% of the Moon is Illuminated
Mar 27
Waning Crescent
Mar 30
New
Apr 7
First Quarter
Apr 15
Full
Apr 22
Last Quarter

Hourly Weather History & Observations

Time (MDT) Temp. Windchill Dew Point Humidity Pressure Visibility Wind Dir Wind Speed Gust Speed Precip Events Conditions
12:53 AM 34.0 °F 26.6 °F 30.9 °F 89% 29.59 in 10.0 mi East 9.2 mph - N/A   Overcast
1:53 AM 33.1 °F 26.1 °F 30.9 °F 92% 29.60 in 6.0 mi East 8.1 mph - 0.00 in Snow Light Snow
2:01 AM 33.1 °F 26.1 °F 30.9 °F 92% 29.58 in 9.0 mi East 8.1 mph - 0.00 in Snow Light Snow
2:10 AM 33.1 °F 26.1 °F 30.9 °F 92% 29.58 in 5.0 mi East 8.1 mph - 0.00 in Snow Light Snow
2:26 AM 33.1 °F 25.5 °F 30.9 °F 92% 29.58 in 9.0 mi East 9.2 mph - 0.00 in Snow Light Snow
2:53 AM 33.1 °F 25.5 °F 30.9 °F 92% 29.60 in 10.0 mi East 9.2 mph - 0.00 in   Overcast
3:53 AM 33.1 °F 28.7 °F 30.0 °F 89% 29.61 in 6.0 mi ESE 4.6 mph - N/A   Overcast
4:04 AM 32.0 °F 27.5 °F 30.0 °F 92% 29.59 in 1.5 mi SSE 4.6 mph - N/A   Overcast
4:07 AM 32.0 °F 27.5 °F 30.0 °F 92% 29.59 in 0.8 mi SSE 4.6 mph - N/A   Overcast
4:53 AM 32.0 °F 28.7 °F 28.9 °F 88% 29.62 in 0.2 mi ESE 3.5 mph - N/A Fog Fog
5:53 AM 32.0 °F 26.4 °F 30.0 °F 92% 29.62 in 0.2 mi ESE 5.8 mph - N/A Fog Fog
6:53 AM 32.0 °F 25.6 °F 30.0 °F 92% 29.63 in 0.5 mi East 6.9 mph - N/A Fog Fog
7:03 AM 32.0 °F 25.6 °F 30.0 °F 92% 29.60 in 1.2 mi East 6.9 mph - N/A   Overcast
7:11 AM 32.0 °F 26.4 °F 30.0 °F 92% 29.60 in 3.0 mi ESE 5.8 mph - N/A   Overcast
7:36 AM 32.0 °F 25.6 °F 30.0 °F 92% 29.60 in 1.5 mi East 6.9 mph - N/A   Overcast
7:42 AM 32.0 °F 24.2 °F 30.0 °F 92% 29.60 in 0.8 mi ESE 9.2 mph - N/A   Overcast
7:53 AM 32.0 °F 24.8 °F 30.0 °F 92% 29.66 in 0.8 mi East 8.1 mph - N/A   Overcast
7:56 AM 32.0 °F 24.2 °F 30.0 °F 92% 29.60 in 1.2 mi East 9.2 mph - N/A   Overcast
8:01 AM 32.0 °F 24.2 °F 30.0 °F 92% 29.60 in 3.0 mi East 9.2 mph - N/A   Overcast
8:34 AM 32.0 °F 23.0 °F 30.0 °F 92% 29.60 in 10.0 mi East 11.5 mph - N/A   Mostly Cloudy
8:53 AM 33.1 °F 24.9 °F 30.0 °F 89% 29.66 in 10.0 mi East 10.4 mph - N/A   Mostly Cloudy
9:19 AM 33.1 °F 24.9 °F 30.0 °F 89% 29.60 in 10.0 mi East 10.4 mph - N/A   Scattered Clouds
9:39 AM 33.1 °F 24.4 °F 30.0 °F 89% 29.60 in 10.0 mi East 11.5 mph - N/A   Mostly Cloudy
9:53 AM 33.1 °F 23.9 °F 30.9 °F 92% 29.66 in 10.0 mi East 12.7 mph - N/A   Overcast
10:22 AM 34.0 °F 25.5 °F 32.0 °F 92% 29.59 in 10.0 mi ESE 11.5 mph - N/A   Overcast
10:53 AM 35.1 °F 25.5 °F 30.9 °F 85% 29.64 in 10.0 mi East 15.0 mph - N/A   Mostly Cloudy
11:14 AM 36.0 °F 26.7 °F 30.9 °F 82% 29.59 in 10.0 mi East 15.0 mph - N/A   Overcast
11:21 AM 36.0 °F 26.3 °F 30.9 °F 82% 29.58 in 10.0 mi East 16.1 mph - N/A   Overcast
11:53 AM 35.1 °F 24.8 °F 30.0 °F 82% 29.64 in 10.0 mi East 17.3 mph - N/A   Overcast
12:21 PM 34.0 °F 23.8 °F 30.0 °F 85% 29.59 in 1.5 mi East 16.1 mph - 0.00 in Snow Light Snow
12:32 PM 34.0 °F 24.2 °F 28.9 °F 82% 29.60 in 1.0 mi East 15.0 mph - 0.00 in Snow Light Snow
12:39 PM 34.0 °F 24.2 °F 30.0 °F 85% 29.60 in 1.2 mi East 15.0 mph - 0.01 in Snow Light Snow
12:53 PM 34.0 °F 24.6 °F 30.0 °F 85% 29.66 in 1.0 mi East 13.8 mph - 0.01 in Snow Light Snow
12:57 PM 33.1 °F 23.4 °F 30.0 °F 89% 29.60 in 0.8 mi East 13.8 mph - 0.00 in Snow Light Snow
1:10 PM 34.0 °F 24.6 °F 30.0 °F 85% 29.60 in 0.5 mi East 13.8 mph - 0.00 in Fog , Snow Snow
1:14 PM 34.0 °F 24.6 °F 30.0 °F 85% 29.60 in 1.0 mi East 13.8 mph - 0.00 in Snow Light Snow
1:22 PM 35.1 °F 26.4 °F 30.9 °F 85% 29.60 in 1.8 mi East 12.7 mph - 0.00 in Snow Light Snow
1:32 PM 36.0 °F 27.5 °F 32.0 °F 86% 29.60 in 3.0 mi East 12.7 mph - 0.00 in Snow Light Snow
1:40 PM 35.1 °F 25.5 °F 30.9 °F 85% 29.60 in 6.0 mi East 15.0 mph - 0.00 in Snow Light Snow
1:53 PM 37.0 °F 28.1 °F 33.1 °F 86% 29.65 in 10.0 mi East 15.0 mph - 0.00 in   Overcast
1:57 PM 36.0 °F 27.5 °F 32.0 °F 86% 29.59 in 10.0 mi East 12.7 mph - N/A   Overcast
2:09 PM 36.0 °F 27.1 °F 32.0 °F 86% 29.59 in 10.0 mi East 13.8 mph - N/A   Overcast
2:40 PM 35.1 °F 26.9 °F 30.0 °F 82% 29.59 in 1.8 mi East 11.5 mph - 0.01 in Snow Light Snow
2:50 PM 35.6 °F 28.6 °F 30.2 °F 81% 29.59 in 1.0 mi East 9.2 mph - 0.01 in Snow Light Snow
2:53 PM 35.1 °F 27.4 °F 30.0 °F 82% 29.65 in 1.0 mi East 10.4 mph - 0.01 in Snow Light Snow
3:01 PM 35.1 °F 27.4 °F 30.9 °F 85% 29.59 in 1.8 mi East 10.4 mph - 0.00 in Snow Light Snow
3:04 PM 36.0 °F 28.5 °F 30.9 °F 82% 29.59 in 3.0 mi East 10.4 mph - 0.00 in Snow Light Snow
3:45 PM 36.0 °F 29.6 °F 30.9 °F 82% 29.60 in 10.0 mi East 8.1 mph - 0.00 in   Overcast
3:53 PM 36.0 °F 29.6 °F 30.9 °F 82% 29.65 in 10.0 mi East 8.1 mph - 0.00 in   Overcast
4:09 PM 36.0 °F 33.3 °F 30.9 °F 82% 29.61 in 10.0 mi ESE 3.5 mph - N/A   Overcast
4:23 PM 36.0 °F 33.3 °F 30.9 °F 82% 29.61 in 10.0 mi East 3.5 mph - N/A   Overcast
4:53 PM 35.1 °F 25.5 °F 30.9 °F 85% 29.71 in 2.5 mi North 15.0 mph - N/A   Overcast
4:55 PM 34.0 °F 24.6 °F 30.0 °F 85% 29.65 in 1.0 mi NNW 13.8 mph 19.6 mph 0.00 in Snow Light Snow
4:58 PM 33.1 °F 23.9 °F 30.0 °F 89% 29.65 in 0.2 mi NW 12.7 mph - 0.02 in Fog , Snow Snow
5:07 PM 33.1 °F 25.5 °F 30.9 °F 92% 29.66 in 0.2 mi NNW 9.2 mph - 0.03 in Fog , Snow Snow
5:20 PM 33.1 °F 27.7 °F 30.9 °F 92% 29.67 in 1.0 mi West 5.8 mph - 0.03 in Snow Light Snow
5:28 PM 33.1 °F 26.9 °F 30.0 °F 89% 29.67 in 1.5 mi SW 6.9 mph - 0.03 in Snow Light Snow
5:38 PM 33.1 °F 26.1 °F 30.9 °F 92% 29.67 in 1.2 mi SSW 8.1 mph - 0.04 in Snow Light Snow
5:51 PM 33.8 °F 25.8 °F 30.2 °F 87% 29.67 in 3.0 mi SW 10.4 mph - 0.04 in Snow Light Snow
5:53 PM 33.1 °F 23.9 °F 30.0 °F 89% 29.73 in 6.0 mi SW 12.7 mph - 0.04 in Snow Light Snow
6:53 PM 34.0 °F 26.6 °F 30.0 °F 85% 29.75 in 9.0 mi WNW 9.2 mph - 0.00 in Snow Light Snow
7:51 PM 33.8 °F 23.9 °F 30.2 °F 87% 29.71 in 2.0 mi WSW 15.0 mph - 0.00 in Snow Light Snow
7:53 PM 34.0 °F 24.2 °F 30.0 °F 85% 29.77 in 2.0 mi WSW 15.0 mph - 0.00 in Snow Light Snow
8:08 PM 34.0 °F 26.0 °F 30.0 °F 85% 29.71 in 5.0 mi WSW 10.4 mph - 0.00 in Snow Light Snow
8:53 PM 34.0 °F 26.0 °F 28.9 °F 82% 29.80 in 10.0 mi WNW 10.4 mph - 0.00 in   Overcast
9:10 PM 33.1 °F 23.9 °F 27.0 °F 78% 29.74 in 10.0 mi NW 12.7 mph - N/A   Overcast
9:39 PM 30.9 °F 22.8 °F 25.0 °F 79% 29.75 in 10.0 mi NW 9.2 mph - N/A   Mostly Cloudy
9:53 PM 30.9 °F 20.7 °F 24.1 °F 76% 29.83 in 10.0 mi NW 13.8 mph - N/A   Partly Cloudy
10:53 PM 30.0 °F 21.7 °F 24.1 °F 79% 29.85 in 10.0 mi West 9.2 mph 19.6 mph N/A   Mostly Cloudy
11:51 PM 30.2 °F 20.2 °F 24.8 °F 80% 29.79 in 8.0 mi NNW 12.7 mph - 0.00 in Snow Light Snow
11:53 PM 30.0 °F 20.0 °F 25.0 °F 82% 29.86 in 8.0 mi NW 12.7 mph - 0.00 in Snow Light Snow